Time,TemperatureF,DewpointF,PressureIn,WindDirection,WindDirectionDegrees,WindSpeedMPH,WindSpeedGustMPH,Humidity,HourlyPrecipIn,Conditions,Clouds,dailyrainin,SoftwareType,DateUTC
2013-03-16 00:11:00,52.3,48.5,29.85,WSW,257,0.0,0.0,87,0.00,,---,0.00,VWS V14.01,2013-03-16 07:11:00,
2013-03-16 00:21:00,52.2,48.5,29.85,WSW,257,0.0,0.0,87,0.00,,---,0.00,VWS V14.01,2013-03-16 07:21:00,
2013-03-16 00:46:00,51.7,48.3,29.86,WSW,257,0.0,0.0,88,0.00,,---,0.00,VWS V14.01,2013-03-16 07:46:00,
2013-03-16 01:11:00,51.0,47.6,29.86,WSW,257,0.0,0.0,88,0.00,,---,0.00,VWS V14.01,2013-03-16 08:11:00,
2013-03-16 01:26:00,50.7,47.3,29.87,WSW,257,0.0,0.0,88,0.00,,---,0.00,VWS V14.01,2013-03-16 08:26:00,
2013-03-16 01:36:00,50.4,47.3,29.87,WSW,257,0.0,0.0,89,0.00,,---,0.00,VWS V14.01,2013-03-16 08:36:00,
2013-03-16 01:51:00,49.9,46.8,29.87,WSW,257,0.0,0.0,89,0.00,,---,0.00,VWS V14.01,2013-03-16 08:51:00,
2013-03-16 02:06:00,49.5,46.4,29.88,WSW,257,0.0,0.0,89,0.00,,---,0.00,VWS V14.01,2013-03-16 09:06:00,
2013-03-16 02:16:00,49.5,46.4,29.87,WSW,257,0.0,0.0,89,0.00,,---,0.00,VWS V14.01,2013-03-16 09:16:00,
2013-03-16 02:21:00,49.5,46.4,29.87,WSW,257,0.0,0.0,89,0.00,,---,0.00,VWS V14.01,2013-03-16 09:21:00,
2013-03-16 02:31:00,49.6,46.8,29.87,WSW,257,0.0,0.0,90,0.00,,---,0.00,VWS V14.01,2013-03-16 09:31:00,
2013-03-16 02:36:00,49.8,47.0,29.87,WSW,257,0.0,0.0,90,0.00,,---,0.00,VWS V14.01,2013-03-16 09:36:00,
2013-03-16 02:41:00,49.9,47.1,29.87,WSW,257,0.0,0.0,90,0.00,,---,0.00,VWS V14.01,2013-03-16 09:41:00,
2013-03-16 02:51:00,50.4,47.6,29.86,WSW,257,0.0,0.0,90,0.00,,---,0.00,VWS V14.01,2013-03-16 09:51:00,
2013-03-16 03:01:00,50.5,48.0,29.86,WSW,257,0.0,0.0,91,0.00,,---,0.00,VWS V14.01,2013-03-16 10:01:00,
2013-03-16 03:06:00,50.4,47.9,29.86,WSW,257,0.0,0.0,91,0.00,,---,0.00,VWS V14.01,2013-03-16 10:06:00,
2013-03-16 03:11:00,50.5,48.0,29.86,WSW,257,0.0,0.0,91,0.00,,---,0.00,VWS V14.01,2013-03-16 10:11:00,
2013-03-16 03:21:00,50.5,48.0,29.85,WSW,257,0.0,0.0,91,0.00,,---,0.00,VWS V14.01,2013-03-16 10:21:00,
2013-03-16 03:41:00,50.4,48.2,29.85,WSW,257,0.0,0.0,92,0.00,,---,0.00,VWS V14.01,2013-03-16 10:41:00,
2013-03-16 03:51:00,50.2,48.0,29.85,WSW,257,0.0,0.0,92,0.00,,---,0.00,VWS V14.01,2013-03-16 10:51:00,
2013-03-16 03:56:00,50.2,48.0,29.85,WSW,257,0.0,0.0,92,0.00,,---,0.00,VWS V14.01,2013-03-16 10:56:00,
2013-03-16 04:06:00,50.1,47.9,29.84,WSW,257,0.0,0.0,92,0.00,,---,0.00,VWS V14.01,2013-03-16 11:06:00,
2013-03-16 04:11:00,49.9,47.7,29.84,WSW,257,0.0,0.0,92,0.00,,---,0.00,VWS V14.01,2013-03-16 11:11:00,
2013-03-16 04:26:00,49.6,47.7,29.84,WSW,257,0.0,0.0,93,0.00,,---,0.00,VWS V14.01,2013-03-16 11:26:00,
2013-03-16 04:36:00,49.6,47.7,29.85,WSW,257,0.0,0.0,93,0.00,,---,0.00,VWS V14.01,2013-03-16 11:36:00,
2013-03-16 04:46:00,49.6,47.7,29.85,WSW,257,0.0,0.0,93,0.00,,---,0.00,VWS V14.01,2013-03-16 11:46:00,
2013-03-16 04:51:00,49.6,47.7,29.85,WSW,257,0.0,0.0,93,0.00,,---,0.00,VWS V14.01,2013-03-16 11:51:00,
2013-03-16 05:01:00,49.6,47.7,29.85,WSW,257,0.0,0.0,93,0.00,,---,0.00,VWS V14.01,2013-03-16 12:01:00,
2013-03-16 05:06:00,49.6,47.7,29.85,WSW,257,0.0,0.0,93,0.00,,---,0.00,VWS V14.01,2013-03-16 12:06:00,
2013-03-16 05:11:00,49.6,47.7,29.85,WSW,257,0.0,0.0,93,0.00,,---,0.00,VWS V14.01,2013-03-16 12:11:00,
2013-03-16 05:21:00,49.6,47.7,29.85,WSW,257,0.0,0.0,93,0.00,,---,0.00,VWS V14.01,2013-03-16 12:21:00,
2013-03-16 05:41:00,49.6,48.0,29.85,WSW,257,0.0,0.0,94,0.00,,---,0.00,VWS V14.01,2013-03-16 12:41:00,
2013-03-16 05:51:00,49.6,48.0,29.85,WSW,257,0.0,0.0,94,0.00,,---,0.00,VWS V14.01,2013-03-16 12:51:00,
2013-03-16 06:06:00,49.6,48.0,29.85,WSW,257,0.0,0.0,94,0.00,,---,0.00,VWS V14.01,2013-03-16 13:06:00,
2013-03-16 06:16:00,49.5,47.8,29.85,WSW,257,0.0,0.0,94,0.00,,---,0.00,VWS V14.01,2013-03-16 13:16:00,
2013-03-16 06:21:00,49.5,47.8,29.85,WSW,257,0.0,0.0,94,0.00,,---,0.00,VWS V14.01,2013-03-16 13:21:00,
2013-03-16 06:31:00,49.5,47.8,29.85,WSW,257,0.0,0.0,94,0.00,,---,0.00,VWS V14.01,2013-03-16 13:31:00,
2013-03-16 06:36:00,49.6,48.0,29.85,WSW,257,0.0,0.0,94,0.00,,---,0.00,VWS V14.01,2013-03-16 13:36:00,
2013-03-16 06:46:00,49.6,48.2,29.86,WSW,257,0.0,0.0,95,0.00,,---,0.00,VWS V14.01,2013-03-16 13:46:00,
2013-03-16 06:56:00,49.4,48.0,29.86,WSW,257,0.0,0.0,95,0.00,,---,0.00,VWS V14.01,2013-03-16 13:56:00,
2013-03-16 07:01:00,49.2,47.8,29.86,WSW,257,0.0,0.0,95,0.00,,---,0.00,VWS V14.01,2013-03-16 14:01:00,
2013-03-16 07:16:00,48.8,47.4,29.86,WSW,257,0.0,0.0,95,0.00,,---,0.00,VWS V14.01,2013-03-16 14:16:00,
2013-03-16 07:21:00,48.6,47.2,29.86,WSW,257,0.0,0.0,95,0.00,,---,0.00,VWS V14.01,2013-03-16 14:21:00,
2013-03-16 07:31:00,48.5,47.1,29.86,WSW,257,0.0,0.0,95,0.00,,---,0.00,VWS V14.01,2013-03-16 14:31:00,
2013-03-16 07:51:00,48.2,46.8,29.86,WSW,257,0.0,0.0,95,0.00,,---,0.00,VWS V14.01,2013-03-16 14:51:00,
2013-03-16 08:01:00,48.5,47.1,29.87,WSW,257,0.0,0.0,95,0.00,,---,0.00,VWS V14.01,2013-03-16 15:01:00,
2013-03-16 08:16:00,48.6,47.5,29.87,WSW,257,0.0,0.0,96,0.00,,---,0.00,VWS V14.01,2013-03-16 15:16:00,
2013-03-16 08:26:00,48.8,47.7,29.87,WSW,257,0.0,0.0,96,0.00,,---,0.00,VWS V14.01,2013-03-16 15:26:00,
2013-03-16 08:36:00,49.1,48.0,29.88,WSW,257,0.0,0.0,96,0.00,,---,0.00,VWS V14.01,2013-03-16 15:36:00,
2013-03-16 09:11:00,50.1,49.0,29.88,West,263,0.0,0.0,96,0.00,,---,0.00,VWS V14.01,2013-03-16 16:11:00,
2013-03-16 09:16:00,50.5,49.4,29.89,West,263,0.0,0.0,96,0.00,,---,0.00,VWS V14.01,2013-03-16 16:16:00,
2013-03-16 09:21:00,51.0,50.2,29.89,West,263,0.0,0.0,97,0.00,,---,0.00,VWS V14.01,2013-03-16 16:21:00,
2013-03-16 09:26:00,51.1,50.0,29.89,West,263,0.0,0.0,96,0.00,,---,0.00,VWS V14.01,2013-03-16 16:26:00,
2013-03-16 09:36:00,51.1,50.3,29.89,SW,232,0.0,0.0,97,0.00,,---,0.00,VWS V14.01,2013-03-16 16:36:00,
2013-03-16 09:51:00,51.4,50.6,29.89,WNW,285,0.0,0.0,97,0.00,,---,0.00,VWS V14.01,2013-03-16 16:51:00,
2013-03-16 09:56:00,51.7,50.9,29.89,WNW,284,0.0,0.0,97,0.00,,---,0.00,VWS V14.01,2013-03-16 16:56:00,
2013-03-16 10:06:00,51.6,50.8,29.90,North,349,0.0,0.0,97,0.00,,---,0.00,VWS V14.01,2013-03-16 17:06:00,
2013-03-16 10:11:00,51.9,51.1,29.90,North,349,0.0,0.0,97,0.00,,---,0.00,VWS V14.01,2013-03-16 17:11:00,
2013-03-16 10:16:00,52.5,51.7,29.89,North,349,0.0,0.0,97,0.00,,---,0.00,VWS V14.01,2013-03-16 17:16:00,
2013-03-16 10:21:00,53.1,52.3,29.89,SSW,212,0.0,0.0,97,0.00,,---,0.00,VWS V14.01,2013-03-16 17:21:00,
2013-03-16 10:31:00,53.1,52.0,29.89,SSW,209,0.0,0.0,96,0.00,,---,0.00,VWS V14.01,2013-03-16 17:31:00,
2013-03-16 10:36:00,53.3,52.5,29.89,SSW,208,0.0,0.0,97,0.00,,---,0.00,VWS V14.01,2013-03-16 17:36:00,
2013-03-16 10:41:00,54.1,53.3,29.89,SSW,212,0.0,0.0,97,0.00,,---,0.00,VWS V14.01,2013-03-16 17:41:00,
2013-03-16 10:46:00,54.4,53.3,29.88,WNW,299,0.0,0.0,96,0.00,,---,0.00,VWS V14.01,2013-03-16 17:46:00,
2013-03-16 10:51:00,55.3,53.9,29.88,West,265,0.0,0.0,95,0.00,,---,0.00,VWS V14.01,2013-03-16 17:51:00,
2013-03-16 11:01:00,56.2,54.2,29.88,SW,233,0.0,0.0,93,0.00,,---,0.00,VWS V14.01,2013-03-16 18:01:00,
2013-03-16 11:06:00,57.0,54.7,29.88,SW,233,0.0,0.0,92,0.00,,---,0.00,VWS V14.01,2013-03-16 18:06:00,
2013-03-16 11:11:00,57.3,54.4,29.88,WNW,285,0.0,0.0,90,0.00,,---,0.00,VWS V14.01,2013-03-16 18:11:00,
2013-03-16 11:36:00,61.3,55.1,29.87,SW,220,0.0,0.0,80,0.00,,---,0.00,VWS V14.01,2013-03-16 18:36:00,
2013-03-16 11:46:00,62.0,55.4,29.87,West,275,0.0,0.0,79,0.00,,---,0.00,VWS V14.01,2013-03-16 18:46:00,
2013-03-16 11:51:00,62.4,55.1,29.87,West,271,0.0,0.0,77,0.00,,---,0.00,VWS V14.01,2013-03-16 18:51:00,
2013-03-16 11:56:00,62.4,55.1,29.87,West,267,0.0,0.0,77,0.00,,---,0.00,VWS V14.01,2013-03-16 18:56:00,
2013-03-16 12:11:00,64.7,55.5,29.86,SSW,203,0.0,0.0,72,0.00,,---,0.00,VWS V14.01,2013-03-16 19:11:00,
2013-03-16 12:16:00,64.8,55.6,29.86,SW,230,0.0,0.0,72,0.00,,---,0.00,VWS V14.01,2013-03-16 19:16:00,
2013-03-16 12:26:00,65.3,55.3,29.86,WSW,257,0.0,2.0,70,0.00,,---,0.00,VWS V14.01,2013-03-16 19:26:00,
2013-03-16 12:36:00,65.5,55.9,29.86,South,184,0.0,6.0,71,0.00,,---,0.00,VWS V14.01,2013-03-16 19:36:00,
2013-03-16 12:41:00,66.4,56.3,29.86,SSW,196,0.0,1.0,70,0.00,,---,0.00,VWS V14.01,2013-03-16 19:41:00,
2013-03-16 12:51:00,67.4,56.5,29.85,South,186,0.0,0.0,68,0.00,,---,0.00,VWS V14.01,2013-03-16 19:51:00,
2013-03-16 13:06:00,67.8,56.9,29.85,SSW,196,0.0,1.0,68,0.00,,---,0.00,VWS V14.01,2013-03-16 20:06:00,
2013-03-16 13:11:00,68.3,56.5,29.85,SW,215,0.0,1.0,66,0.00,,---,0.00,VWS V14.01,2013-03-16 20:11:00,
2013-03-16 13:21:00,68.3,56.9,29.84,WSW,254,0.0,1.0,67,0.00,,---,0.00,VWS V14.01,2013-03-16 20:21:00,
2013-03-16 13:31:00,68.6,56.4,29.84,WSW,240,0.0,4.0,65,0.00,,---,0.00,VWS V14.01,2013-03-16 20:31:00,
2013-03-16 13:36:00,68.4,57.0,29.84,West,267,0.0,5.0,67,0.00,,---,0.00,VWS V14.01,2013-03-16 20:36:00,
2013-03-16 13:41:00,68.3,56.9,29.84,SW,224,0.0,7.0,67,0.00,,---,0.00,VWS V14.01,2013-03-16 20:41:00,
2013-03-16 13:46:00,68.1,57.2,29.83,WSW,237,0.0,5.0,68,0.00,,---,0.00,VWS V14.01,2013-03-16 20:46:00,
2013-03-16 14:01:00,69.3,57.0,29.82,WSW,246,0.0,1.0,65,0.00,,---,0.00,VWS V14.01,2013-03-16 21:01:00,
2013-03-16 14:16:00,71.1,57.4,29.81,SW,223,0.0,7.0,62,0.00,,---,0.00,VWS V14.01,2013-03-16 21:16:00,
2013-03-16 14:31:00,72.3,57.7,29.80,SW,220,0.0,1.0,60,0.00,,---,0.00,VWS V14.01,2013-03-16 21:31:00,
2013-03-16 14:36:00,72.1,57.5,29.80,West,278,0.0,7.0,60,0.00,,---,0.00,VWS V14.01,2013-03-16 21:36:00,
2013-03-16 14:46:00,70.8,57.6,29.80,WSW,248,2.0,12.0,63,0.00,,---,0.00,VWS V14.01,2013-03-16 21:46:00,
2013-03-16 15:06:00,70.4,57.2,29.79,SW,222,0.0,5.0,63,0.00,,---,0.00,VWS V14.01,2013-03-16 22:06:00,
2013-03-16 15:11:00,70.4,57.2,29.79,SSW,213,5.0,7.0,63,0.00,,---,0.00,VWS V14.01,2013-03-16 22:11:00,
2013-03-16 15:21:00,70.8,58.0,29.80,WSW,251,0.0,7.0,64,0.00,,---,0.00,VWS V14.01,2013-03-16 22:21:00,
2013-03-16 15:31:00,70.4,57.2,29.79,West,268,0.0,6.0,63,0.00,,---,0.00,VWS V14.01,2013-03-16 22:31:00,
2013-03-16 15:51:00,70.9,58.6,29.79,WSW,243,0.0,3.0,65,0.00,,---,0.00,VWS V14.01,2013-03-16 22:51:00,
2013-03-16 15:56:00,70.4,56.8,29.79,South,191,2.0,10.0,62,0.00,,---,0.00,VWS V14.01,2013-03-16 22:56:00,
2013-03-16 16:01:00,69.9,57.2,29.80,West,261,0.0,6.0,64,0.00,,---,0.00,VWS V14.01,2013-03-16 23:01:00,
2013-03-16 16:11:00,68.9,56.2,29.80,West,260,0.0,8.0,64,0.00,,---,0.00,VWS V14.01,2013-03-16 23:11:00,
2013-03-16 16:21:00,68.4,55.8,29.80,SW,226,0.0,5.0,64,0.00,,---,0.00,VWS V14.01,2013-03-16 23:21:00,
2013-03-16 16:31:00,69.4,56.7,29.80,SSW,212,1.0,5.0,64,0.00,,---,0.00,VWS V14.01,2013-03-16 23:31:00,
2013-03-16 16:36:00,68.1,55.5,29.80,West,274,0.0,1.0,64,0.00,,---,0.00,VWS V14.01,2013-03-16 23:36:00,
2013-03-16 16:46:00,66.9,55.2,29.80,West,274,0.0,1.0,66,0.00,,---,0.00,VWS V14.01,2013-03-16 23:46:00,
2013-03-16 16:51:00,66.8,55.5,29.80,West,263,0.0,6.0,67,0.00,,---,0.00,VWS V14.01,2013-03-16 23:51:00,
2013-03-16 17:01:00,67.1,55.4,29.80,SW,220,0.0,0.0,66,0.00,,---,0.00,VWS V14.01,2013-03-17 00:01:00,
2013-03-16 17:06:00,66.4,55.1,29.80,WSW,246,0.0,1.0,67,0.00,,---,0.00,VWS V14.01,2013-03-17 00:06:00,
2013-03-16 17:16:00,66.8,55.1,29.79,SW,222,0.0,0.0,66,0.00,,---,0.00,VWS V14.01,2013-03-17 00:16:00,
2013-03-16 17:26:00,67.1,55.0,29.79,WSW,248,0.0,0.0,65,0.00,,---,0.00,VWS V14.01,2013-03-17 00:26:00,
2013-03-16 17:36:00,67.3,54.7,29.79,WSW,247,0.0,0.0,64,0.00,,---,0.00,VWS V14.01,2013-03-17 00:36:00,
2013-03-16 17:41:00,67.1,55.4,29.79,WSW,247,0.0,0.0,66,0.00,,---,0.00,VWS V14.01,2013-03-17 00:41:00,
2013-03-16 17:46:00,67.3,55.2,29.78,WSW,247,0.0,0.0,65,0.00,,---,0.00,VWS V14.01,2013-03-17 00:46:00,
2013-03-16 18:06:00,66.4,55.1,29.79,SW,223,0.0,0.0,67,0.00,,---,0.00,VWS V14.01,2013-03-17 01:06:00,
2013-03-16 18:21:00,66.1,54.8,29.79,SW,234,0.0,0.0,67,0.00,,---,0.00,VWS V14.01,2013-03-17 01:21:00,
2013-03-16 18:31:00,65.8,54.5,29.79,WSW,248,0.0,0.0,67,0.00,,---,0.00,VWS V14.01,2013-03-17 01:31:00,
2013-03-16 18:36:00,65.5,54.7,29.79,WSW,250,0.0,0.0,68,0.00,,---,0.00,VWS V14.01,2013-03-17 01:36:00,
2013-03-16 18:41:00,65.0,54.2,29.79,WSW,250,0.0,0.0,68,0.00,,---,0.00,VWS V14.01,2013-03-17 01:41:00,
2013-03-16 18:51:00,64.5,54.1,29.80,SW,226,0.0,0.0,69,0.00,,---,0.00,VWS V14.01,2013-03-17 01:51:00,
2013-03-16 19:06:00,62.7,52.8,29.80,SW,229,0.0,0.0,70,0.00,,---,0.00,VWS V14.01,2013-03-17 02:06:00,
2013-03-16 19:21:00,61.6,52.1,29.81,SW,229,0.0,0.0,71,0.00,,---,0.00,VWS V14.01,2013-03-17 02:21:00,
2013-03-16 19:26:00,61.3,51.8,29.81,SW,229,0.0,0.0,71,0.00,,---,0.00,VWS V14.01,2013-03-17 02:26:00,
2013-03-16 19:31:00,60.9,51.8,29.81,SW,229,0.0,0.0,72,0.00,,---,0.00,VWS V14.01,2013-03-17 02:31:00,
2013-03-16 19:41:00,60.2,51.2,29.81,SW,229,0.0,0.0,72,0.00,,---,0.00,VWS V14.01,2013-03-17 02:41:00,
2013-03-16 19:46:00,59.8,50.8,29.81,SW,229,0.0,0.0,72,0.00,,---,0.00,VWS V14.01,2013-03-17 02:46:00,
2013-03-16 19:51:00,59.5,50.8,29.81,SW,229,0.0,0.0,73,0.00,,---,0.00,VWS V14.01,2013-03-17 02:51:00,
2013-03-16 20:01:00,58.7,50.1,29.81,SW,229,0.0,0.0,73,0.00,,---,0.00,VWS V14.01,2013-03-17 03:01:00,
2013-03-16 20:11:00,58.1,49.9,29.81,SW,229,0.0,0.0,74,0.00,,---,0.00,VWS V14.01,2013-03-17 03:11:00,
2013-03-16 20:26:00,57.0,49.2,29.82,SW,229,0.0,0.0,75,0.00,,---,0.00,VWS V14.01,2013-03-17 03:26:00,
2013-03-16 20:36:00,56.5,49.0,29.82,SW,229,0.0,0.0,76,0.00,,---,0.00,VWS V14.01,2013-03-17 03:36:00,
2013-03-16 20:46:00,55.7,49.0,29.83,SW,229,0.0,0.0,78,0.00,,---,0.00,VWS V14.01,2013-03-17 03:46:00,
2013-03-16 20:51:00,55.4,49.0,29.83,SW,229,0.0,0.0,79,0.00,,---,0.00,VWS V14.01,2013-03-17 03:51:00,
2013-03-16 21:06:00,54.7,48.7,29.84,SW,229,0.0,0.0,80,0.00,,---,0.00,VWS V14.01,2013-03-17 04:06:00,
2013-03-16 21:11:00,54.5,48.8,29.84,SW,229,0.0,0.0,81,0.00,,---,0.00,VWS V14.01,2013-03-17 04:11:00,
2013-03-16 21:16:00,54.2,48.8,29.85,SW,229,0.0,0.0,82,0.00,,---,0.00,VWS V14.01,2013-03-17 04:16:00,
2013-03-16 21:21:00,53.9,48.5,29.85,SW,229,0.0,0.0,82,0.00,,---,0.00,VWS V14.01,2013-03-17 04:21:00,
2013-03-16 21:26:00,53.6,48.2,29.85,SW,229,0.0,0.0,82,0.00,,---,0.00,VWS V14.01,2013-03-17 04:26:00,
2013-03-16 21:31:00,53.5,48.2,29.85,SW,229,0.0,0.0,82,0.00,,---,0.00,VWS V14.01,2013-03-17 04:31:00,
2013-03-16 21:41:00,53.1,48.1,29.85,SW,229,0.0,0.0,83,0.00,,---,0.00,VWS V14.01,2013-03-17 04:41:00,
2013-03-16 21:46:00,52.9,47.9,29.85,SW,229,0.0,0.0,83,0.00,,---,0.00,VWS V14.01,2013-03-17 04:46:00,
2013-03-16 21:51:00,52.8,47.8,29.85,SW,229,0.0,0.0,83,0.00,,---,0.00,VWS V14.01,2013-03-17 04:51:00,
2013-03-16 21:56:00,52.5,47.5,29.85,SW,229,0.0,0.0,83,0.00,,---,0.00,VWS V14.01,2013-03-17 04:56:00,
2013-03-16 22:01:00,52.3,47.6,29.86,SW,229,0.0,0.0,84,0.00,,---,0.00,VWS V14.01,2013-03-17 05:01:00,
2013-03-16 22:16:00,52.0,47.6,29.86,SW,229,0.0,0.0,85,0.00,,---,0.00,VWS V14.01,2013-03-17 05:16:00,
2013-03-16 22:21:00,51.9,47.5,29.86,SW,229,0.0,0.0,85,0.00,,---,0.00,VWS V14.01,2013-03-17 05:21:00,
2013-03-16 22:31:00,51.7,47.7,29.86,SW,229,0.0,0.0,86,0.00,,---,0.00,VWS V14.01,2013-03-17 05:31:00,
2013-03-16 22:36:00,51.6,47.6,29.86,SW,229,0.0,0.0,86,0.00,,---,0.00,VWS V14.01,2013-03-17 05:36:00,
2013-03-16 22:46:00,51.3,47.3,29.86,SW,229,0.0,0.0,86,0.00,,---,0.00,VWS V14.01,2013-03-17 05:46:00,
2013-03-16 22:56:00,51.0,47.3,29.86,SW,229,0.0,0.0,87,0.00,,---,0.00,VWS V14.01,2013-03-17 05:56:00,
2013-03-16 23:01:00,50.8,47.1,29.86,SW,229,0.0,0.0,87,0.00,,---,0.00,VWS V14.01,2013-03-17 06:01:00,
2013-03-16 23:11:00,50.5,46.8,29.86,SW,229,0.0,0.0,87,0.00,,---,0.00,VWS V14.01,2013-03-17 06:11:00,
2013-03-16 23:16:00,50.4,46.7,29.86,SW,229,0.0,0.0,87,0.00,,---,0.00,VWS V14.01,2013-03-17 06:16:00,
2013-03-16 23:21:00,50.2,46.5,29.86,SW,229,0.0,0.0,87,0.00,,---,0.00,VWS V14.01,2013-03-17 06:21:00,
2013-03-16 23:31:00,49.9,46.5,29.86,SW,229,0.0,0.0,88,0.00,,---,0.00,VWS V14.01,2013-03-17 06:31:00,
2013-03-16 23:36:00,49.8,46.4,29.86,SW,229,0.0,0.0,88,0.00,,---,0.00,VWS V14.01,2013-03-17 06:36:00,
2013-03-16 23:41:00,49.6,46.2,29.86,SW,229,0.0,0.0,88,0.00,,---,0.00,VWS V14.01,2013-03-17 06:41:00,
2013-03-16 23:56:00,49.2,45.8,29.86,SW,229,0.0,0.0,88,0.00,,---,0.00,VWS V14.01,2013-03-17 06:56:00,